Flag for Portugal Weather past 2 weeks in Coimbra, Portugal

Now
48 °F

Clear.


Feels Like: 48 °F
Forecast: 40 / 66 °F
Wind: 2 mph from Northeast

Location: Porto / Pedras Rubras

Current Time: Apr 19, 2015 at 11:55:39 PM

Latest Report: Apr 19, 2015 at 11:30 PM


Visibility: 10 mi

Pressure: 30.12 "Hg

Humidity: 94%

Dew point: 46 °F

Location of CoimbraLocation

Historic Weather in Coimbra — Graph

°F

Coimbra temperature yesterday

Maximum temperature yesterday: 59 °F (at 1:30 PM)
Minimum temperature yesterday: 50 °F (at 12:00 AM)
Average temperature yesterday: 55 °F

Past Weeks' High & Low Weather Summary

 TemperatureHumidityPressure
High81 °F (Apr 13, 3:00 PM)100% (Apr 5, 11:00 PM)30.30 "Hg (Apr 5, 11:00 PM)
Low45 °F (Apr 11, 5:00 AM)26% (Apr 13, 3:00 PM)29.77 "Hg (Apr 5, 4:30 PM)
Average59 °F73%30.06 "Hg
* Reported Apr 4 10:00 PM — Apr 19 10:30 PM, Coimbra, Weather by CustomWeather, © 2015

Note: Actual official high and low records may vary slightly from our data, if they occured in-between our weather recording intervals... More about our weather records

Advertising

Coimbra weather history for previous 24 hours

 ConditionsComfort  
Time TempWeatherWind HumidityBarometerVisibility
10:30 PM
Sun, Apr 19
50 °FPassing clouds.No wind94%30.12 "HgN/A
10:00 PM52 °FPassing clouds.No wind88%30.12 "HgN/A
9:30 PM52 °FPassing clouds.2 mph88%30.12 "HgN/A
9:00 PM54 °FPassing clouds.3 mph82%30.09 "HgN/A
8:30 PM55 °FPassing clouds.5 mph77%30.09 "HgN/A
8:00 PM55 °FScattered clouds.6 mph77%30.09 "HgN/A
7:30 PM57 °FPassing clouds.7 mph72%30.07 "HgN/A
7:00 PM57 °FPassing clouds.8 mph72%30.09 "HgN/A
6:30 PM59 °FPassing clouds.8 mph68%30.07 "HgN/A
6:00 PM59 °FPassing clouds.8 mph72%30.07 "HgN/A
5:30 PM61 °FPassing clouds.8 mph68%30.07 "HgN/A
5:00 PM61 °FPassing clouds.9 mph68%30.07 "HgN/A
4:30 PM61 °FPassing clouds.8 mph68%30.07 "HgN/A
4:00 PM61 °FScattered clouds.8 mph68%30.07 "HgN/A
3:30 PM61 °FScattered clouds.8 mph68%30.09 "HgN/A
3:00 PM61 °FScattered clouds.8 mph63%30.09 "HgN/A
2:30 PM61 °FScattered clouds.7 mph63%30.09 "HgN/A
2:00 PM61 °FScattered clouds.7 mph68%30.09 "HgN/A
1:30 PM61 °FScattered clouds.7 mph68%30.09 "HgN/A
1:00 PM59 °FScattered clouds.7 mph63%30.09 "HgN/A
12:30 PM59 °FScattered clouds.6 mph63%30.09 "HgN/A
12:00 PM59 °FBroken clouds.5 mph68%30.09 "HgN/A
11:30 AM57 °FBroken clouds.5 mph72%30.09 "HgN/A
11:00 AM59 °FScattered clouds.3 mph72%30.09 "HgN/A
10:30 AM57 °FScattered clouds.6 mph77%30.09 "HgN/A
10:00 AM57 °FScattered clouds.3 mph77%30.09 "HgN/A
9:30 AM55 °FBroken clouds.3 mph82%30.09 "HgN/A
9:00 AM54 °FScattered clouds.6 mph94%30.09 "HgN/A
8:30 AM52 °FScattered clouds.8 mph94%30.09 "HgN/A
8:00 AM48 °FPassing clouds.6 mph100%30.09 "HgN/A
7:30 AM48 °FPassing clouds.6 mph94%30.09 "HgN/A
7:00 AM48 °FPassing clouds.7 mph94%30.07 "HgN/A
6:30 AM46 °FPassing clouds.3 mph100%30.07 "HgN/A
6:00 AM46 °FPassing clouds.1 mph100%30.07 "HgN/A
5:30 AM46 °FPassing clouds.2 mph100%30.07 "HgN/A
5:00 AM46 °FPassing clouds.3 mph100%30.07 "HgN/A
4:30 AM46 °FPassing clouds.3 mph93%30.07 "HgN/A
4:00 AM46 °FPassing clouds.No wind100%30.07 "HgN/A
3:30 AM46 °FPassing clouds.No wind100%30.07 "HgN/A
3:00 AM46 °FPassing clouds.No wind100%30.07 "HgN/A
2:30 AM46 °FPassing clouds.2 mph93%30.07 "HgN/A
2:00 AM46 °FPassing clouds.2 mph100%30.09 "HgN/A
1:30 AM46 °FPassing clouds.1 mph100%30.07 "HgN/A
1:00 AM48 °FPassing clouds.No wind94%30.07 "HgN/A
12:30 AM48 °FPassing clouds.No wind94%30.07 "HgN/A
12:00 AM50 °FPassing clouds.No wind94%30.07 "HgN/A
11:30 PM
Sat, Apr 18
50 °FPassing clouds.No wind94%30.07 "HgN/A
11:00 PM50 °FPassing clouds.2 mph94%30.07 "HgN/A
Weather by CustomWeather, © 2015

See weather overviewHow to use our weather pages